Regional Weather Roundup
Issued by NWS

Home | Current Version | Previous Version | Text Only | Print | Product List | Glossary Off
Versions: 1 2 3 4 5 6 7 8 9 10 11 12 13 14 15 16 17 18 19 20 21 22 23 24 25 26 27 28

000
ASUS45 KTFX 251210
RWRMT
MONTANA REGIONAL WEATHER ROUNDUP
NATIONAL WEATHER SERVICE GREAT FALLS MT
600 AM MDT SUN JUN 25 2017

NOTE: "FAIR" INDICATES FEW OR NO CLOUDS BELOW 12000 FEET WITH NO
SIGNIFICANT WEATHER AND/OR OBSTRUCTIONS TO VISIBILITY.

MTZ001>007-043-251300-
WEST OF THE DIVIDE

CITY           SKY/WX    TMP DP  RH WIND       PRES   REMARKS
KALISPELL      CLEAR     46  44  93 NW5       30.24R
MISSOULA       CLEAR     49  41  74 N3        30.26R
BUTTE          CLEAR     41  35  79 SE5       30.38R
MULLAN PASS    CLEAR     56  31  38 SE10G20   30.33S
ANACONDA         N/A     45  36  70 SW5       30.35S
DEER LODGE       N/A     41  37  87 CALM      30.37R
EUREKA           N/A     45  39  81 MISG      30.24R
HAMILTON         N/A     48  39  71 CALM      30.28R
$$

MTZ008-052>055-251300-
SOUTHWEST MONTANA

CITY           SKY/WX    TMP DP  RH WIND       PRES   REMARKS
BOZEMAN        CLEAR     48  38  68 SW3       30.35R
DILLON         CLEAR     41  36  82 CALM      30.35R
W YELLOWSTONE  CLOUDY    30  28  93 CALM      30.43R
ENNIS          CLEAR     41  36  81 SE5       30.41S
THREE FORKS      N/A     44  40  86 CALM      30.30R
$$

MTZ009-010-012-014-046-048-049-054-251300-
EAST SLOPES AND CENTRAL MONTANA

CITY           SKY/WX    TMP DP  RH WIND       PRES   REMARKS
CUT BANK       CLEAR     48  41  76 CALM      30.31S
GREAT FALLS    CLEAR     47  40  76 S5        30.32S
MALMSTROM AFB  CLEAR     46  42  89 SW6       30.32R
HELENA         CLEAR     50  40  68 W3        30.32S
CHOTEAU          N/A     45  41  87 SW6       30.33S
$$

MTZ011-013-016-021-045-047-050-051-251300-
NORTH CENTRAL MONTANA

CITY           SKY/WX    TMP DP  RH WIND       PRES   REMARKS
HAVRE          CLEAR     41  37  86 CALM      30.30S
LEWISTOWN      CLEAR     40  36  86 SE6       30.34S
N BAR RANCH      N/A     39  34  81 NW5       30.37S
CHINOOK          N/A     43  39  87 CALM      30.30S
FORT BENTON      N/A     46  43  87 MISG      30.33R
$$

MTZ017>020-022>027-061-062-251300-
NORTHEAST MONTANA

CITY           SKY/WX    TMP DP  RH WIND       PRES   REMARKS
GLASGOW        CLEAR     42  34  73 NW5       30.26R
JORDAN           N/A     44  29  55 W7        30.28S
SIDNEY         MOCLDY    47  37  68 S5        30.26R
WOLF POINT     CLEAR     45  33  63 W5        30.26S
MALTA          CLEAR     41  39  93 E3        30.29R
PLENTYWOOD       N/A     52  46  82 CALM      30.26F
POPLAR           N/A     48  34  57 CALM      30.27S
$$

MTZ028>42-056>058-251300-
SOUTHCENTRAL AND SOUTHEAST MONTANA

CITY           SKY/WX    TMP DP  RH WIND       PRES   REMARKS
BAKER          CLEAR     48  31  51 N3        30.31R
BILLINGS       PTCLDY    53  40  61 SW3       30.32R
LIVINGSTON     CLEAR     38  34  85 CALM      30.37R
MILES CITY     CLEAR     49  31  49 S7        30.29S
BIG TIMBER     CLEAR     43  37  81 W9        30.38S
FORSYTH          N/A     46  37  71 CALM      30.29S
ROUNDUP          N/A     47  35  63 S5        30.21S
$$

REGIONAL REPORTS...DAKOTAS

CITY           SKY/WX    TMP DP  RH WIND       PRES   REMARKS
WILLISTON      LGT RAIN  52  42  69 CALM      30.28R
MINOT          MOCLDY    53  41  63 SW7       30.24S
DICKINSON      PTCLDY    44  33  65 SW8       30.26S
BEACH            N/A     50  32  50 SW12G17   30.31S
CROSBY           N/A     52  52 100 SW7       30.26S
TIOGA          MOCLDY    52  50  93 W14G20    30.29R
WATFORD CITY     N/A     46  43  87 SE3       30.27F
BISMARCK       LGT RAIN  47  40  76 CALM      30.30R
GRAND FORKS    MOSUNNY   47  44  90 W6        30.22R
FARGO          SUNNY     49  43  80 NW9       30.22R
BUFFALO SD       N/A     48  32  53 W5        30.26F
RAPID CITY     PTCLDY    45  33  63 S5        30.35F
$$

REGIONAL REPORTS...WYOMING/IDAHO/WASHINGTON

CITY           SKY/WX    TMP DP  RH WIND       PRES   REMARKS
GILLETTE       MOCLDY    45  37  73 CALM      30.35R
SHERIDAN       CLOUDY    46  41  82 SE3       30.34R
BUFFALO WY     CLEAR     49  35  58 NW3       30.37R
CODY           CLEAR     47  35  63 CALM      30.39R
YELLOWSTONE LA   N/A     32  30  92 CALM      30.49R
IDAHO FALLS    CLEAR     47  45  93 N7        30.27R
SALMON         CLEAR     45  39  81 CALM      30.27R
BOISE          CLEAR     61  40  45 S9        30.10R
SPOKANE        CLEAR     61  44  53 NE8       30.13R
$$

REGIONAL REPORTS...ALBERTA

CITY           SKY/WX    TMP DP  RH WIND       PRES   REMARKS
EDMONTON       CLEAR     52  48  87 CALM      30.22S
CALGARY        PTCLDY    52  45  76 S5        30.26S
LETHBRIDGE     PTCLDY    45  43  93 W3        30.28R
MEDICINE HAT   CLEAR     46  45  93 S5        30.27S
WATERTON GATE    N/A     37  36  93 SW2         N/A
CARDSTON         N/A     43  41  93 SE3         N/A
MILK RIVER       N/A     45  41  87 S2          N/A
ONEFOUR          N/A     46  39  76 SE2         N/A
$$

REGIONAL REPORTS...SASKATCHEWAN

CITY           SKY/WX    TMP DP  RH WIND       PRES   REMARKS
SWIFT CURRENT  CLEAR     46  45  93 W6        30.27R
REGINA         MOCLDY    50  48  93 N16       30.27R
SASKATOON      PTCLDY    46  45  93 NE3       30.28R
CYPRESS HILLS    N/A     50  39  66 NW5         N/A
VAL MARIE        N/A     39  36  87 SW1         N/A
ROCKGLEN         N/A     50  39  66 NW2         N/A
$$




USA.gov is the U.S. government's official web portal to all federal, state and local government web resources and services.